Weather History for Jersey, United Kingdom

Change the Weather History Date:

Wednesday, January 22, 2014

  Actual Average Record
Temperature  
Mean Temperature 48 °F -  
Max Temperature 51 °F 46 °F 51 °F (2012)
Min Temperature 44 °F 39 °F 32 °F (1998)
Degree Days  
Heating Degree Days 18    
Moisture  
Dew Point 44 °F    
Average Humidity 86    
Maximum Humidity 100    
Minimum Humidity 70    
Precipitation  
Precipitation 0.00 in - - ()
Sea Level Pressure  
Sea Level Pressure 29.78 in    
Wind  
Wind Speed 10 mph ()    
Max Wind Speed 18 mph    
Max Gust Speed -    
Visibility 9.0 miles    
Events Rain    
Averages and records for this station are not official NWS values.
T = Trace of Precipitation, MM = Missing Value Source: Averaged Metar Reports

Daily Weather History Graph

Daily Weather History Graph

Search for Another Location

Airport:

Trip Planner

Search our weather history database for the weather conditions in past years. The results will help you decide how hot, cold, wet, or windy it might be!

Date:

Astronomy

Jan. 22, 2014 Rise Set
Actual Time 7:52 AM GMT 4:48 PM GMT
Civil Twilight 7:16 AM GMT 5:24 PM GMT
Nautical Twilight 6:37 AM GMT 6:03 PM GMT
Astronomical Twilight 6:00 AM GMT 6:41 PM GMT
Moon 11:45 PM GMT (1/22) 10:10 AM GMT (1/22)
Length of Visible Light 10h 07m
Length of Day
8h 56m
Waning Gibbous, 67% of the Moon is Illuminated
Jan 22
Waning Gibbous
Jan 24
Last Quarter
Jan 30
New
Feb 6
First Quarter
Feb 14
Full

Hourly Weather History & Observations

Time (GMT) Temp. Windchill Dew Point Humidity Pressure Visibility Wind Dir Wind Speed Gust Speed Precip Events Conditions
12:00 AM 48 °F - 47 °F 95% 29.65 in 12 mi West 11.5 mph - - Rain Light Drizzle
1:00 AM 48 °F - 46 °F 92% 29.66 in 9 mi SW 11.5 mph - -   Overcast
2:00 AM 48 °F - 46 °F 92% 29.66 in 7 mi SW 10.4 mph - -   Overcast
3:00 AM 47 °F - 47 °F 100% 29.67 in 9 mi SW 10.4 mph - - Rain Light Rain
3:50 AM 48.2 °F - 46.4 °F 93% 29.65 in 3.7 mi SW 10.4 mph - N/A Rain Light Rain
4:00 AM 47 °F - 46 °F 95% 29.67 in 4 mi SW 10.4 mph - - Rain Light Rain
4:20 AM 46.4 °F 41.9 °F 46.4 °F 100% 29.65 in 3.7 mi SSW 9.2 mph - N/A Rain Light Rain
4:50 AM 48.2 °F - 46.4 °F 93% 29.65 in 4.3 mi SW 10.4 mph - N/A   Mostly Cloudy
5:00 AM 48 °F - 47 °F 93% 29.68 in 4 mi SW 9.2 mph - - Rain Light Rain
5:20 AM 46.4 °F 41.9 °F 46.4 °F 100% 29.65 in 6.2 mi SW 9.2 mph - N/A   Mostly Cloudy
5:50 AM 46.4 °F 41.9 °F 46.4 °F 100% 29.65 in 6.2 mi SW 9.2 mph - N/A   Mostly Cloudy
6:00 AM 47 °F - 46 °F 97% 29.68 in 5 mi WSW 12.7 mph - - Rain Light Rain
6:20 AM 46.4 °F 41.1 °F 46.4 °F 100% 29.68 in 6.2 mi WSW 11.5 mph - N/A   Mostly Cloudy
6:50 AM 46.4 °F 42.9 °F 44.6 °F 93% 29.68 in 6.2 mi NW 6.9 mph - N/A   Mostly Cloudy
7:00 AM 46 °F - 45 °F 94% 29.70 in 12 mi NW 10.4 mph - - Rain Light Rain Showers
7:20 AM 46.4 °F 44.3 °F 44.6 °F 93% 29.68 in 6.2 mi WNW 4.6 mph - N/A   Scattered Clouds
7:50 AM 46.4 °F 40.7 °F 44.6 °F 93% 29.71 in 6.2 mi NW 12.7 mph - N/A   Mostly Cloudy
8:00 AM 47 °F - 45 °F 89% 29.72 in 19 mi NW 13.8 mph - -   Mostly Cloudy
8:20 AM 46.4 °F 42.4 °F 44.6 °F 93% 29.71 in 6.2 mi NW 8.1 mph - N/A   Mostly Cloudy
8:50 AM 46.4 °F 42.4 °F 44.6 °F 93% 29.74 in 6.2 mi NW 8.1 mph - N/A   Mostly Cloudy
9:00 AM 47 °F - 44 °F 86% 29.74 in 19 mi NW 9.2 mph - -   Partly Cloudy
9:20 AM 46.4 °F 43.5 °F 42.8 °F 87% 29.74 in 6.2 mi NW 5.8 mph - N/A   Mostly Cloudy
9:50 AM 48.2 °F - 44.6 °F 87% 29.74 in 6.2 mi WNW 6.9 mph - N/A   Mostly Cloudy
10:00 AM 47 °F - 44 °F 86% 29.76 in 19 mi WNW 5.8 mph - -   Mostly Cloudy
10:20 AM 48.2 °F - 44.6 °F 87% 29.77 in 6.2 mi WNW 10.4 mph - N/A   Scattered Clouds
10:50 AM 50.0 °F - 44.6 °F 82% 29.77 in 6.2 mi WNW 11.5 mph - N/A   Partly Cloudy
11:00 AM 49 °F - 44 °F 76% 29.78 in 16 mi WNW 11.5 mph - -   Scattered Clouds
11:20 AM 50.0 °F - 44.6 °F 82% 29.77 in 6.2 mi West 6.9 mph - N/A   Partly Cloudy
11:50 AM 51.8 °F - 44.6 °F 76% 29.77 in 6.2 mi West 10.4 mph - N/A   Scattered Clouds
12:00 PM 51 °F - 44 °F 71% 29.79 in 19 mi West 12.7 mph - -   Partly Cloudy
12:20 PM 51.8 °F - 46.4 °F 82% 29.77 in 6.2 mi WNW 10.4 mph - N/A   Scattered Clouds
12:50 PM 50.0 °F - 46.4 °F 87% 29.77 in 6.2 mi West 11.5 mph - N/A   Partly Cloudy
1:00 PM 50 °F - 45 °F 78% 29.80 in 19 mi West 13.8 mph - -   Partly Cloudy
1:20 PM 50.0 °F - 46.4 °F 87% 29.77 in 6.2 mi West 10.4 mph - N/A   Partly Cloudy
1:50 PM 50.0 °F - 44.6 °F 82% 29.77 in 6.2 mi West 16.1 mph - N/A Rain Light Rain Showers
2:00 PM 49 °F - 45 °F 79% 29.80 in 16 mi West 13.8 mph - - Rain Light Rain Showers
2:20 PM 48.2 °F - 44.6 °F 87% 29.80 in 6.2 mi West 9.2 mph - N/A   Partly Cloudy
2:50 PM 50.0 °F - 46.4 °F 87% 29.80 in 6.2 mi West 12.7 mph - N/A   Partly Cloudy
3:00 PM 50 °F - 46 °F 81% 29.78 in 12 mi West 10.4 mph - - Rain Light Rain Showers
3:20 PM 48.2 °F - 44.6 °F 87% 29.80 in 6.2 mi WNW 13.8 mph - N/A   Scattered Clouds
3:50 PM 48.2 °F - 42.8 °F 82% 29.83 in 6.2 mi NW 11.5 mph - N/A   Partly Cloudy
4:00 PM 48 °F - 44 °F 81% 29.83 in 16 mi WNW 11.5 mph - - Rain Light Rain Showers
4:20 PM 48.2 °F - 42.8 °F 82% 29.83 in 6.2 mi WNW 6.9 mph - N/A   Partly Cloudy
4:50 PM 48.2 °F - 42.8 °F 82% 29.83 in 6.2 mi NW 18.4 mph - N/A   Partly Cloudy
5:00 PM 48 °F - 44 °F 80% 29.86 in 19 mi NW 12.7 mph - - Rain Light Rain Showers
5:20 PM 48.2 °F - 42.8 °F 82% 29.86 in 6.2 mi NW 12.7 mph - N/A   Partly Cloudy
5:50 PM 48.2 °F - 42.8 °F 82% 29.86 in 6.2 mi WNW 12.7 mph - N/A   Partly Cloudy
6:00 PM 48 °F - 42 °F 72% 29.88 in 16 mi NW 12.7 mph - -   Partly Cloudy
6:20 PM 46.4 °F 40.1 °F 42.8 °F 87% 29.89 in 6.2 mi WNW 15.0 mph - N/A   Scattered Clouds
6:50 PM 44.6 °F 37.4 °F 41.0 °F 87% 29.89 in 6.2 mi West 16.1 mph - N/A Rain Light Rain Showers
7:00 PM 46 °F - 42 °F 80% 29.91 in 3 mi West 17.3 mph - - Rain Light Rain Showers
7:20 PM 46.4 °F 41.5 °F 41.0 °F 81% 29.89 in 6.2 mi West 10.4 mph - N/A   Partly Cloudy
7:50 PM 48.2 °F - 41.0 °F 76% 29.92 in 6.2 mi NW 15.0 mph - N/A   Partly Cloudy
8:00 PM 47 °F - 41 °F 72% 29.92 in 12 mi NW 13.8 mph - - Rain Light Rain Showers
8:20 PM 46.4 °F 39.8 °F 41.0 °F 81% 29.92 in 6.2 mi NW 16.1 mph - N/A   Partly Cloudy
9:00 PM 47 °F - 41 °F 71% 29.95 in 16 mi NW 13.8 mph - -   Partly Cloudy
10:00 PM 47 °F - 40 °F 70% 29.96 in 16 mi NW 12.7 mph - -   Partly Cloudy
11:00 PM 47 °F - 40 °F 70% 29.97 in 19 mi NW 15.0 mph - -   Scattered Clouds